sat.trackr.live / text

‹ back to catalog

KUIPER-00016

NORAD 63732 · 2025-088J

PAYLOAD ACTIVE UNKNOWN

§ Identity

Operator
Country
US
Launch date
2025-04-28
Launch site
AFETR
Launch vehicle
Mass (kg)
RCS (m²)

External: N2YO · Heavens-Above · Gunter

§ Orbital elements

Epoch: 2026-09-21T09:06:26.081856Z

Period
97.30 min
Inclination
51.9015°
Eccentricity
0.0000367
Mean motion
14.79928736 rev/d
Perigee alt
629.3 km
Apogee alt
629.8 km
Semi-major
7,007.7 km
B*
2.5326e-4
RAAN
325.2307°
Arg perigee
81.8391°
Mean anomaly
278.2613°
Rev number
7,632

§ Raw data

KUIPER-000161 63732U 25088J   26264.37946854  .00001710  00000+0  25326-3 0  99992 63732  51.9015 325.2307 0000367  81.8391 278.2613 14.79928736 76325

JSON: /api/v1/satellites/63732 · /tle

For live sub-satellite position, see the globe view (requires WebGL).

§ Visibility from observer

Set your observer location to see the next 7 days of passes ≥ 10°. The values pass through the URL so the page stays shareable.

No JS? Fill the form by hand. The geolocation button needs JavaScript.